EW0920 Weather Reports


time (UTC)temp
C
wind
direction
speed
KPH
gust
KPH
rain 1hr
cm
rain 24hr
cm
rain mn
cm
humidity
%
barometer
mb
20260502183220 12 246 4.8 4.8 0.00 0.03 0.03 43 1018.3
20260502182716 13 298 6.4 6.4 0.00 0.03 0.03 39 1018.5
20260502182211 14 293 1.6 4.8 0.00 0.03 0.03 40 1018.5
20260502181708 14 338 1.6 3.2 0.00 0.03 0.03 44 1018.4
20260502181203 12 345 0.0 1.6 0.00 0.03 0.03 41 1018.6
20260502180659 11 36 0.0 1.6 0.00 0.03 0.03 48 1018.6
20260502180156 11 327 1.6 11.3 0.00 0.03 0.03 43 1018.7
20260502170120 11 254 3.2 4.8 0.00 0.03 0.03 46 1019.0
20260502164107 12 3 1.6 4.8 0.00 0.03 0.03 53 1019.0
20260502163603 13 196 1.6 3.2 0.00 0.03 0.03 47 1019.0
20260502163100 12 325 3.2 3.2 0.00 0.03 0.03 44 1019.0
20260502162556 12 63 0.0 1.6 0.00 0.03 0.03 46 1019.2
20260502162054 12 302 1.6 4.8 0.00 0.03 0.03 46 1019.3
20260502161550 11 33 1.6 1.6 0.00 0.03 0.03 45 1019.2
20260502161048 12 15 4.8 6.4 0.00 0.03 0.03 47 1019.4
20260502160546 12 155 4.8 9.7 0.00 0.03 0.03 48 1019.4
20260502151959 11 28 1.6 4.8 0.00 0.03 0.03 50 1019.4
20260502151455 10 346 0.0 3.2 0.00 0.03 0.03 55 1019.4
20260502150953 10 262 1.6 3.2 0.00 0.03 0.03 52 1019.4
20260502150450 10 34 0.0 1.6 0.00 0.03 0.03 55 1019.5
20260502130335 5 297 0.0 1.6 0.00 0.03 0.03 96 1019.5
20260502123318 2 15 0.0 0.0 0.00 0.03 0.03 99 1019.7
20260502122815 1 15 0.0 0.0 0.00 0.03 0.03 99 1019.5
20260502122310 1 15 0.0 1.6 0.00 0.03 0.03 99 1019.4
20260502121809 1 9 0.0 0.0 0.00 0.03 0.03 99 1019.4
20260502121306 1 9 0.0 0.0 0.00 0.03 0.03 99 1019.5
20260502120803 0 9 0.0 0.0 0.00 0.03 0.03 99 1019.3
20260502120300 0 11 0.0 0.0 0.00 0.03 0.03 99 1019.2
20260502115757 0 357 0.0 0.0 0.00 0.03 0.03 99 1019.2
20260502115254 0 357 0.0 0.0 0.00 0.03 0.03 99 1019.3
20260502114750 0 357 0.0 0.0 0.00 0.03 0.03 99 1019.4
20260502114247 0 357 0.0 0.0 0.00 0.03 0.03 99 1019.4
20260502113744 0 357 0.0 0.0 0.00 0.03 0.03 99 1019.4
20260502113242 0 357 0.0 0.0 0.00 0.03 0.03 99 1019.3
20260502112740 0 357 0.0 0.0 0.00 0.03 0.03 99 1019.3
20260502112237 0 357 0.0 0.0 0.00 0.03 0.03 99 1019.3
20260502111734 0 357 0.0 0.0 0.00 0.03 0.03 99 1019.3
20260502111232 0 357 0.0 0.0 0.00 0.03 0.03 99 1019.2
20260502110729 0 357 0.0 0.0 0.00 0.03 0.03 99 1019.3
20260502110227 0 357 0.0 0.0 0.00 0.03 0.03 99 1019.2
20260502105725 0 353 0.0 0.0 0.00 0.03 0.03 99 1019.3
20260502105220 0 353 0.0 0.0 0.00 0.03 0.03 99 1019.3
20260502104718 0 353 0.0 0.0 0.00 0.03 0.03 99 1019.4
20260502104216 0 353 0.0 0.0 0.00 0.03 0.03 99 1019.2
20260502103713 0 353 0.0 0.0 0.00 0.03 0.03 99 1019.3
20260502103211 0 353 0.0 0.0 0.00 0.03 0.03 99 1019.2
20260502102707 0 353 0.0 0.0 0.00 0.03 0.03 99 1019.4
20260502102204 0 353 0.0 0.0 0.00 0.03 0.03 99 1019.5
20260502101702 0 353 0.0 0.0 0.00 0.03 0.03 99 1019.6
20260502101200 0 353 0.0 0.0 0.00 0.03 0.03 99 1019.4
20260502100658 0 353 0.0 0.0 0.00 0.03 0.03 99 1019.4
20260502100156 0 353 0.0 0.0 0.00 0.03 0.03 99 1019.2
20260502091130 0 350 0.0 0.0 0.00 0.03 0.03 99 1019.3
20260502090627 0 350 0.0 0.0 0.00 0.03 0.03 99 1019.5
20260502090125 0 350 0.0 0.0 0.00 0.03 0.03 99 1019.7
20260502071521 1 1 0.0 0.0 0.00 0.03 0.03 99 1018.7
20260502071020 1 1 0.0 0.0 0.00 0.03 0.03 99 1018.7
20260502070517 1 1 0.0 0.0 0.00 0.03 0.03 99 1018.8
20260502070015 1 1 0.0 0.0 0.00 0.03 0.03 99 1018.9
20260502065514 1 1 0.0 0.0 0.00 0.03 0.03 99 1019.3
20260502065011 2 1 0.0 0.0 0.00 0.03 0.03 99 1019.1
20260502064509 2 1 0.0 0.0 0.00 0.03 0.03 99 1019.1
20260502064006 2 1 0.0 0.0 0.00 0.03 0.03 99 1019.4
20260502063504 2 1 0.0 0.0 0.00 0.03 0.03 99 1019.4
20260502063001 2 1 0.0 0.0 0.00 0.03 0.03 99 1019.3
20260502062458 2 1 0.0 0.0 0.00 0.03 0.03 99 1019.4
20260502061957 2 1 0.0 0.0 0.00 0.03 0.03 99 1019.2
20260502061454 2 1 0.0 0.0 0.00 0.03 0.03 99 1019.3
20260502060950 2 1 0.0 0.0 0.00 0.03 0.03 99 1019.4
20260502060446 2 1 0.0 0.0 0.00 0.03 0.03 99 1019.3
20260502055943 2 1 0.0 0.0 0.00 0.03 0.03 99 1019.5
20260502055440 3 1 0.0 0.0 0.00 0.03 0.03 99 1019.4
20260502054935 3 1 0.0 0.0 0.00 0.03 0.03 99 1019.6
20260502054432 3 1 0.0 0.0 0.00 0.03 0.03 99 1019.6
20260502053929 3 1 0.0 0.0 0.00 0.03 0.03 99 1019.5
20260502053426 3 1 0.0 0.0 0.00 0.03 0.03 99 1019.5
20260502052924 3 1 0.0 0.0 0.00 0.03 0.03 99 1019.6
20260502052422 3 359 0.0 0.0 0.00 0.03 0.03 98 1019.7
20260502051920 3 359 0.0 0.0 0.00 0.03 0.03 98 1019.5
20260502051418 4 359 0.0 0.0 0.00 0.03 0.03 98 1019.5
20260502050914 4 359 0.0 0.0 0.00 0.03 0.03 98 1019.6
20260502050411 4 359 0.0 0.0 0.00 0.03 0.03 98 1019.6
20260502045908 4 356 0.0 0.0 0.00 0.03 0.03 98 1019.4
20260502045405 5 356 0.0 0.0 0.00 0.03 0.03 99 1019.5
20260502044902 5 356 0.0 0.0 0.00 0.03 0.03 99 1019.8
20260502044357 5 355 0.0 0.0 0.13 0.03 0.03 99 1019.7
20260502043855 4 24 0.0 1.6 0.13 0.03 0.03 99 1019.8
20260502043352 4 355 0.0 0.0 0.00 0.00 0.00 99 1020.0
20260502042852 4 357 0.0 0.0 0.00 0.00 0.00 99 1020.0
20260502042349 4 357 0.0 0.0 0.00 0.00 0.00 99 1019.8
20260502041846 3 8 0.0 1.6 0.00 0.00 0.00 98 1019.9
20260502041344 3 356 0.0 0.0 0.00 0.00 0.00 98 1019.6
20260502040841 3 359 0.0 0.0 0.00 0.00 0.00 98 1019.5
20260502040338 3 359 0.0 0.0 0.00 0.00 0.00 98 1019.6
20260502035834 3 359 0.0 0.0 0.00 0.10 0.10 98 1019.6
20260502035331 3 359 0.0 0.0 0.00 0.10 0.10 98 1019.4
20260502034828 3 351 0.0 0.0 0.00 0.10 0.10 98 1019.6
20260502034327 3 351 0.0 0.0 0.00 0.10 0.10 98 1019.5
20260502033825 3 351 0.0 0.0 0.00 0.10 0.10 98 1019.6
20260502033322 3 351 0.0 0.0 0.00 0.10 0.10 98 1019.5
20260502032818 3 345 0.0 0.0 0.00 0.10 0.10 98 1019.8
20260502032315 3 357 0.0 0.0 0.00 0.10 0.10 98 1019.6
20260502031812 3 5 0.0 0.0 0.00 0.10 0.10 97 1019.7
20260502031310 3 5 0.0 0.0 0.00 0.10 0.10 97 1019.7
20260502030809 3 5 0.0 0.0 0.00 0.10 0.10 97 1019.7
20260502030307 3 5 0.0 0.0 0.00 0.10 0.10 97 1019.8
20260502025803 3 5 0.0 0.0 0.00 0.10 0.10 97 1019.8
20260502025301 3 357 0.0 0.0 0.00 0.10 0.10 97 1019.7
20260502024759 3 356 0.0 0.0 0.00 0.10 0.10 97 1019.7
20260502024256 3 356 0.0 0.0 0.00 0.10 0.10 96 1019.8
20260502023754 3 357 0.0 0.0 0.00 0.10 0.10 96 1019.6
20260502023252 3 357 0.0 0.0 0.00 0.10 0.10 96 1019.5
20260502022749 3 357 0.0 0.0 0.00 0.10 0.10 95 1019.3
20260502022245 3 357 0.0 0.0 0.00 0.10 0.10 95 1019.2
20260502021742 3 355 0.0 0.0 0.00 0.10 0.10 95 1019.3
20260502021240 4 355 0.0 0.0 0.00 0.10 0.10 95 1018.9
20260502020737 4 355 0.0 0.0 0.00 0.10 0.10 94 1018.7
20260502020234 4 353 0.0 0.0 0.00 0.10 0.10 94 1018.7
20260502015732 4 353 0.0 0.0 0.00 0.10 0.10 94 1018.9
20260502015228 4 353 0.0 0.0 0.00 0.10 0.10 93 1018.8
20260502014726 5 353 0.0 0.0 0.00 0.10 0.10 93 1018.7
20260502014222 5 353 0.0 0.0 0.00 0.10 0.10 93 1018.7
20260502013719 5 353 0.0 0.0 0.00 0.10 0.10 93 1018.9
20260502013213 5 353 0.0 0.0 0.00 0.10 0.10 92 1018.9
20260502012711 5 353 0.0 0.0 0.00 0.10 0.10 91 1018.8
20260502012209 5 353 0.0 0.0 0.00 0.10 0.10 91 1018.8
20260502011706 5 353 0.0 0.0 0.00 0.10 0.10 90 1018.6
20260502011201 5 353 0.0 0.0 0.00 0.10 0.10 89 1018.5
20260502010700 5 353 0.0 0.0 0.00 0.10 0.10 88 1018.0
20260502010155 6 353 0.0 0.0 0.00 0.10 0.10 86 1018.2
20260502005653 6 353 0.0 0.0 0.00 0.10 0.10 85 1018.0
20260502005150 6 353 0.0 0.0 0.00 0.10 0.10 85 1018.0
20260502004646 6 353 0.0 0.0 0.00 0.10 0.10 83 1017.8
20260502004143 7 353 0.0 0.0 0.00 0.10 0.10 82 1017.6
20260502003641 7 3 0.0 0.0 0.00 0.10 0.10 80 1017.7
20260502003138 7 3 0.0 0.0 0.00 0.10 0.10 79 1017.6
20260502002633 7 3 0.0 0.0 0.00 0.10 0.10 79 1017.6
20260502002131 8 9 0.0 0.0 0.00 0.10 0.10 79 1017.4
20260502001629 8 9 0.0 0.0 0.00 0.10 0.10 80 1017.6
20260502001126 8 2 0.0 0.0 0.00 0.10 0.10 79 1017.5
20260502000624 8 2 0.0 0.0 0.00 0.10 0.10 77 1017.5
20260502000121 8 11 0.0 0.0 0.00 0.10 0.10 74 1017.2
20260501235617 8 338 3.2 6.4 0.00 0.10 0.10 68 1017.3
20260501235113 9 11 0.0 0.0 0.00 0.10 0.10 70 1017.2
20260501234609 9 4 0.0 1.6 0.00 0.10 0.10 71 1017.1
20260501234106 9 352 0.0 0.0 0.00 0.10 0.10 72 1016.7
20260501233605 10 131 1.6 6.4 0.00 0.10 0.10 68 1016.8
20260501233102 10 6 0.0 0.0 0.00 0.10 0.10 71 1016.7
20260501232557 10 345 0.0 1.6 0.00 0.10 0.10 67 1016.7
20260501232055 10 4 0.0 0.0 0.00 0.10 0.10 69 1016.5
20260501231552 10 73 1.6 1.6 0.00 0.10 0.10 68 1016.6
20260501231051 10 309 0.0 1.6 0.00 0.10 0.10 66 1017.0
20260501230549 10 215 1.6 1.6 0.00 0.10 0.10 66 1016.8
20260501230047 10 341 0.0 3.2 0.00 0.10 0.10 66 1016.6
20260501225544 10 359 0.0 4.8 0.00 0.10 0.10 69 1016.4
20260501225040 11 326 0.0 4.8 0.00 0.10 0.10 70 1016.4
20260501224538 11 337 0.0 1.6 0.00 0.10 0.10 69 1016.5
20260501224034 11 323 1.6 3.2 0.00 0.10 0.10 67 1016.2
20260501223531 11 351 4.8 4.8 0.00 0.10 0.10 65 1016.3
20260501223027 12 312 0.0 9.7 0.00 0.10 0.10 65 1016.2
20260501222524 12 257 1.6 3.2 0.00 0.10 0.10 62 1015.9
20260501222021 12 22 0.0 3.2 0.00 0.10 0.10 63 1016.0
20260501221517 12 17 1.6 11.3 0.00 0.10 0.10 63 1015.7
20260501221015 12 356 1.6 4.8 0.00 0.10 0.10 66 1015.8
20260501220513 12 358 0.0 4.8 0.00 0.10 0.10 67 1015.8
20260501220009 13 8 0.0 6.4 0.00 0.10 0.10 62 1015.9
20260501215505 13 354 0.0 4.8 0.00 0.10 0.10 64 1015.8
20260501215001 12 9 0.0 3.2 0.00 0.10 0.10 62 1015.7
20260501214456 12 323 3.2 6.4 0.00 0.10 0.10 63 1015.7
20260501213952 12 33 3.2 3.2 0.00 0.10 0.10 67 1015.3
20260501213449 12 17 0.0 3.2 0.00 0.10 0.10 65 1015.3
20260501212944 12 41 1.6 14.5 0.00 0.10 0.10 64 1015.3
20260501212442 12 13 0.0 3.2 0.00 0.10 0.10 69 1015.2
20260501211938 12 2 3.2 11.3 0.00 0.10 0.10 66 1015.0
20260501211436 13 202 3.2 4.8 0.00 0.10 0.10 69 1015.2
20260501210933 13 86 0.0 4.8 0.00 0.10 0.10 68 1014.9
20260501210430 12 4 1.6 3.2 0.00 0.10 0.10 73 1015.0
20260501205926 12 19 1.6 4.8 0.00 0.10 0.10 73 1014.7
20260501205423 13 22 3.2 3.2 0.00 0.10 0.10 72 1014.9
20260501204921 13 323 0.0 1.6 0.00 0.10 0.10 75 1014.9
20260501204416 12 327 0.0 3.2 0.00 0.10 0.10 73 1014.9
20260501203913 12 240 0.0 11.3 0.00 0.10 0.10 77 1015.0
20260501203410 12 1 3.2 6.4 0.00 0.10 0.10 77 1014.8
20260501202907 12 308 1.6 3.2 0.00 0.10 0.10 77 1015.1
20260501202404 12 7 3.2 11.3 0.00 0.10 0.10 78 1015.0
20260501201901 11 333 0.0 6.4 0.00 0.10 0.10 81 1014.9
20260501201358 11 355 0.0 0.0 0.00 0.10 0.10 84 1015.0
20260501200854 11 0 0.0 4.8 0.00 0.10 0.10 81 1015.1
20260501200351 11 333 0.0 0.0 0.00 0.10 0.10 83 1014.9
20260501195849 10 1 0.0 3.2 0.00 0.10 0.10 84 1015.0
20260501195344 10 253 1.6 1.6 0.00 0.10 0.10 86 1015.3
20260501194841 10 129 3.2 3.2 0.00 0.10 0.10 87 1015.3
20260501194337 10 20 1.6 1.6 0.00 0.10 0.10 87 1015.3
20260501193833 10 93 0.0 1.6 0.00 0.10 0.10 89 1015.3
20260501193332 10 9 0.0 0.0 0.00 0.10 0.10 90 1015.5
20260501192829 10 21 0.0 0.0 0.00 0.10 0.10 88 1015.3
20260501192326 10 19 0.0 1.6 0.00 0.10 0.10 87 1015.5
20260501191823 10 7 0.0 0.0 0.00 0.10 0.10 89 1015.4
20260501191320 10 348 0.0 1.6 0.00 0.10 0.10 89 1015.3
20260501190817 10 347 0.0 0.0 0.00 0.10 0.10 91 1015.4
20260501190313 10 18 0.0 1.6 0.00 0.10 0.10 90 1015.5
20260501185808 10 13 0.0 1.6 0.18 0.10 0.10 90 1015.5
20260501185306 10 344 1.6 6.4 0.18 0.10 0.10 90 1015.7
20260501184800 10 141 1.6 3.2 0.00 0.08 0.08 90 1015.5
20260501184256 10 13 0.0 0.0 0.00 0.08 0.08 92 1015.1
20260501183752 10 6 1.6 1.6 0.00 0.08 0.08 90 1015.3